Estación de Illapel
Ultimos registro cada 15 minutos 56
| N° | Estación | Fecha / Hora | Temperatura | Humedad | Lluvia | Velocidad | Dirección | Radiación | Presion |
| 56 | Illapel | 06-09-2026 13:45 | 20,8 | 39 | 0 | 3,6 | 329 | 939 | 989,3 |
| 55 | Illapel | 06-09-2026 13:30 | 19,9 | 43 | 0 | 2,2 | 236 | 962 | 990,9 |
| 54 | Illapel | 06-09-2026 13:15 | 19,5 | 42 | 0 | 2,7 | 264 | 780 | 991,2 |
| 53 | Illapel | 06-09-2026 13:00 | 19,9 | 43 | 0 | 0,9 | 279 | 573 | 990,9 |
| 52 | Illapel | 06-09-2026 12:45 | 20,3 | 43 | 0 | 2,7 | 205 | 738 | 990,2 |
| 51 | Illapel | 06-09-2026 12:30 | 20,3 | 44 | 0 | 2,2 | 272 | 830 | 989,8 |
| 50 | Illapel | 06-09-2026 12:15 | 20,1 | 42 | 0 | 0,4 | 259 | 731 | 990,2 |
| 49 | Illapel | 06-09-2026 12:00 | 20 | 41 | 0 | 1,8 | 257 | 490 | 989,6 |
| 48 | Illapel | 06-09-2026 11:45 | 20 | 37 | 0 | 0,9 | 251 | 165 | 989,1 |
| 47 | Illapel | 06-09-2026 11:30 | 20,2 | 39 | 0 | 0,9 | 316 | 135 | 989,1 |
| 46 | Illapel | 06-09-2026 11:15 | 20,2 | 38 | 0 | 0,9 | 274 | 91 | 989,1 |
| 45 | Illapel | 06-09-2026 11:00 | 19,8 | 39 | 0 | 0,9 | 343 | 72 | 989,2 |
| 44 | Illapel | 06-09-2026 10:45 | 19 | 40 | 0 | 1,3 | 357 | 62 | 989,2 |
| 43 | Illapel | 06-09-2026 10:30 | 18,2 | 41 | 0 | 0,4 | 6 | 42 | 988,8 |
| 42 | Illapel | 06-09-2026 10:15 | 17,6 | 41 | 0 | 0,9 | 13 | 35 | 990,2 |
| 41 | Illapel | 06-09-2026 10:00 | 17,3 | 44 | 0 | 0,4 | 48 | 584 | 990,3 |
| 40 | Illapel | 06-09-2026 09:45 | 16,9 | 43 | 0 | 0,4 | 64 | 439 | 991,1 |
| 39 | Illapel | 06-09-2026 09:30 | 16,2 | 44 | 0 | 0,9 | 72 | 543 | 991,5 |
| 38 | Illapel | 06-09-2026 09:15 | 15,5 | 48 | 0 | 0,4 | 97 | 459 | 993,5 |
| 37 | Illapel | 06-09-2026 09:00 | 14,3 | 52 | 0 | 0,4 | 110 | 438 | 949,2 |
| 36 | Illapel | 06-09-2026 08:45 | 13,2 | 53 | 0 | 0 | 111 | 387 | 949,2 |
| 35 | Illapel | 06-09-2026 08:30 | 11,9 | 51 | 0 | 0 | 125 | 278 | 949,2 |
| 34 | Illapel | 06-09-2026 08:15 | 10,5 | 45 | 0 | 1,8 | 128 | 258 | 949,2 |
| 33 | Illapel | 06-09-2026 08:00 | 9,7 | 37 | 0 | 0,4 | 132 | 121 | 949,2 |
| 32 | Illapel | 06-09-2026 07:45 | 8,7 | 28 | 0 | 0,4 | 138 | 142 | 949,2 |
| 31 | Illapel | 06-09-2026 07:30 | 8,1 | 29 | 0 | 0,4 | 129 | 74 | 949,2 |
| 30 | Illapel | 06-09-2026 07:15 | 7,4 | 29 | 0 | 0,9 | 154 | 12 | 949,2 |
| 29 | Illapel | 06-09-2026 07:00 | 7,4 | 29 | 0 | 0 | 150 | 5 | 949,2 |
| 28 | Illapel | 06-09-2026 06:45 | 7,3 | 29 | 0 | 0,4 | 173 | 0 | 949,2 |
| 27 | Illapel | 06-09-2026 06:30 | 7,7 | 28 | 0 | 0,4 | 114 | 0 | 949,2 |
| 26 | Illapel | 06-09-2026 06:15 | 7,5 | 28 | 0 | 0,4 | 101 | 0 | 949,2 |
| 25 | Illapel | 06-09-2026 06:00 | 7,6 | 28 | 0 | 0 | 97 | 0 | 949,2 |
| 24 | Illapel | 06-09-2026 05:45 | 7,7 | 29 | 0 | 0,4 | 94 | 0 | 949,2 |
| 23 | Illapel | 06-09-2026 05:30 | 7,7 | 29 | 0 | 0,4 | 129 | 0 | 949,2 |
| 22 | Illapel | 06-09-2026 05:15 | 7,8 | 29 | 0 | 0,9 | 104 | 0 | 949,2 |
| 21 | Illapel | 06-09-2026 05:00 | 7,8 | 28 | 0 | 0 | 143 | 0 | 949,2 |
| 20 | Illapel | 06-09-2026 04:45 | 8 | 30 | 0 | 0,4 | 141 | 0 | 949,2 |
| 19 | Illapel | 06-09-2026 04:30 | 7,5 | 30 | 0 | 0 | 127 | 0 | 949,2 |
| 18 | Illapel | 06-09-2026 04:15 | 7,4 | 29 | 0 | 0 | 129 | 0 | 949,2 |
| 17 | Illapel | 06-09-2026 04:00 | 7,6 | 29 | 0 | 0 | 127 | 0 | 949,2 |
| 16 | Illapel | 06-09-2026 03:45 | 7,6 | 29 | 0 | 0 | 127 | 0 | 949,2 |
| 15 | Illapel | 06-09-2026 03:30 | 8 | 28 | 0 | 0 | 127 | 0 | 949,2 |
| 14 | Illapel | 06-09-2026 03:15 | 8,4 | 29 | 0 | 0,4 | 198 | 0 | 949,2 |
| 13 | Illapel | 06-09-2026 03:00 | 8,4 | 29 | 0 | 0 | 207 | 0 | 949,2 |
| 12 | Illapel | 06-09-2026 02:45 | 8,2 | 32 | 0 | 0 | 217 | 0 | 949,2 |
| 11 | Illapel | 06-09-2026 02:30 | 8 | 32 | 0 | 0 | 219 | 0 | 949,2 |
| 10 | Illapel | 06-09-2026 02:15 | 8,1 | 34 | 0 | 0 | 234 | 0 | 949,2 |
| 9 | Illapel | 06-09-2026 02:00 | 8,1 | 35 | 0 | 0 | 234 | 0 | 949,2 |
| 8 | Illapel | 06-09-2026 01:45 | 8,3 | 36 | 0 | 0 | 234 | 0 | 949,2 |
| 7 | Illapel | 06-09-2026 01:30 | 8,3 | 36 | 0 | 0 | 234 | 0 | 949,2 |
| 6 | Illapel | 06-09-2026 01:15 | 8,6 | 36 | 0 | 0 | 234 | 0 | 949,2 |
| 5 | Illapel | 06-09-2026 01:00 | 8,6 | 36 | 0 | 0 | 234 | 0 | 949,2 |
| 4 | Illapel | 06-09-2026 00:45 | 8,7 | 36 | 0 | 0 | 235 | 0 | 949,2 |
| 3 | Illapel | 06-09-2026 00:30 | 9,1 | 36 | 0 | 0 | 235 | 0 | 949,2 |
| 2 | Illapel | 06-09-2026 00:15 | 9,1 | 37 | 0 | 0 | 236 | 0 | 949,2 |
| 1 | Illapel | 06-09-2026 00:00 | 9,2 | 38 | 0 | 0 | 237 | 0 | 949,2 |